Overview Statistics Trail Chart Weather Telemetry Raw packets
 

This is the latest recevied weather packets stored in our database for station/object KD8DNO-13. If no packets are shown the sender has not sent any weather packets the latest 10 day(s).

<< 1 2 3 4 5 6 7 >>
Time Temp. Humidity Pressure Rain* Wind** Luminosity Snow
1788551283 27.78° C 76% 1017.6 hPa 0 mm - - -
1788550983 27.78° C 78% 1017.6 hPa 0 mm - - -
1788550684 27.22° C 81% 1017.6 hPa 0 mm - - -
1788550384 26.67° C 81% 1017.6 hPa 0 mm - - -
1788550083 26.67° C 82% 1017.6 hPa 0 mm - - -
1788549783 26.67° C 83% 1017.6 hPa 0 mm - - -
1788549483 26.11° C 82% 1017.6 hPa 0 mm - - -
1788549183 26.67° C 82% 1017.9 hPa 0 mm - - -
1788548883 26.11° C 83% 1017.9 hPa 0 mm - - -
1788548583 25.56° C 84% 1018.2 hPa 0 mm - - -
1788548284 25.56° C 84% 1018.2 hPa 0 mm - - -
1788547983 25° C 86% 1018.2 hPa 0 mm - - -
1788547683 24.44° C 87% 1018.2 hPa 0 mm - - -
1788547384 25° C 85% 1018.2 hPa 0 mm - - -
1788547083 25.56° C 85% 1018.2 hPa 0 mm - - -
1788546783 25° C 86% 1018.2 hPa 0.25 mm - - -
1788546483 25.56° C 86% 1018.2 hPa 0.51 mm - - -
1788546183 25.56° C 90% 1018.2 hPa 0.51 mm - - -
1788545883 26.11° C 89% 1018.2 hPa 0.76 mm - - -
1788545584 26.67° C 90% 1018.6 hPa 1.02 mm - - -
1788545283 26.11° C 89% 1018.6 hPa 1.02 mm - - -
1788544983 26.11° C 89% 1018.6 hPa 1.02 mm - - -
1788544683 25.56° C 92% 1018.6 hPa 1.02 mm - - -
1788544383 25° C 92% 1018.6 hPa 1.02 mm - - -
1788544083 25° C 92% 1017.6 hPa 1.02 mm - - -

* Rain latest hour (hover to see other rain measurements)
** Current wind speed in m/s (hover to see current wind gust speed)